Tracking 19176 objects as of 25-May-2018
HD Live streaming from Space Station
objects crossing your sky now

NOAA 16 DEB

Track NOAA 16 DEB now!
10-day predictions


NORAD ID: 41653
Int'l Code: 2000-055NS
Perigee: 840.3 km
Apogee: 856.6 km
Inclination: 98.9 °
Period: 101.7 minutes
Semi major axis: 7219 km
RCS: Unknown
Launch date: September 21, 2000
Source: United States (US)
Launch site: AIR FORCE WESTERN TEST RANGE (AFWTR)

Note: This is SATELLITE DEBRIS
aabbcc
Your satellite tracking list
Your tracking list is empty




NASA's NSSDC Master Catalog

Two Line Element Set (TLE):
1 41653U 00055NS  18144.45541694 +.00000747 +00000-0 +40635-3 0  9994
2 41653 098.8881 224.4340 0011273 091.1197 269.1267 14.15292767108459
Source of the keplerian elements: AFSPC